www.pogodaiklimat.ru

Погода и климат >> Архив погоды >> Индия >> Андхра-Прадеш >> Бапатла


ПОГОДА в Бапатле

  • Прогноз погоды в Бапатле
  • Монитор погоды в Бапатле

АРХИВ ПОГОДЫ в Бапатле

Время (UTC), дата Ветер
(напр.,м/с)
 
Видим.   Явления Облачность Т
(С)
Тd
(С)
f
(%)
Тe
(С)
Тes
(С)
Комфортность P
(гПа)
Po
(гПа)
Тmin
(С)
Tmax
(С)
R
(мм)
R24
(мм)
S
(см)
18 11.08 штиль 0 4000 м 5/1 600 м
[Sc diur, vesp Ac trans Ci sp]
+29.4 +23.9 72 +40 +40 очень
душно
1003.2 1002.5
21 11.08 З 1 4000 м 4/1 600 м
[Sc diur, vesp Ci sp]
+28.0 +22.7 73 +37 +37 очень
душно
1001.6 1000.9
00 12.08 З 1 4000 м 8/4 600 м
[Sc Ac trans Ci sp]
+27.6 +22.2 72 +36 +36 очень
душно
1002.0 1001.3
03 12.08 З 1 10 км 8/4 600 м
[Sc diur, vesp Ac trans]
+30.0 +24.2 71 +42 +45 опасность
перегрева
1003.7 1003.0 +27.2 +37.0
06 12.08 З 4 10 км 8/4 600 м
[Sc diur, vesp Ac trans]
+34.0 +24.0 56 +46 +51 опасность
перегрева
1002.9 1002.2
09 12.08 З 2 10 км 10/5 600 м
[Sc diur, vesp Ac As]
+34.6 +22.7 50 +44 +46 опасность
перегрева
1000.7 1000.0
12 12.08 З 2 10 км 10/5 600 м
[Sc diur, vesp Ac As]
+33.8 +22.1 51 +43 +43 опасность
перегрева
1000.1 999.4 +35.8
15 12.08 штиль 0 4000 м 9/5 600 м
[Sc diur, vesp Ac trans]
+31.6 +24.4 66 +44 +44 опасность
перегрева
1002.2 1001.5
18 12.08 штиль 0 4000 м 9/4 600 м
[Sc diur, vesp Ac trans Ci sp]
+29.6 +24.7 75 +42 +42 опасность
перегрева
1002.8 1002.1
21 12.08 штиль 0 4000 м 9/3 600 м
[Sc diur, vesp Ac trans Ci sp]
+28.4 +24.0 77 +39 +39 очень
душно
1001.2 1000.5
00 13.08 штиль 0 4000 м 9/3 600 м
[Sc Ac trans Ci sp]
+28.4 +23.7 76 +39 +39 очень
душно
1001.4 1000.7
03 13.08 З 1 10 км 9/4 600 м
[Sc Ac trans Ci sp]
+30.0 +26.0 79 +45 +48 опасность
перегрева
1003.7 1003.0 +28.0 +35.8
06 13.08 З 3 10 км 9/5 600 м
[Sc diur, vesp Ac trans]
+32.0 +25.5 69 +47 +51 опасность
перегрева
1003.7 1003.0
09 13.08 З 3 10 км 9/5 600 м
[Sc diur, vesp Ac trans Ci sp]
+34.2 +24.5 57 +47 +51 опасность
перегрева
1001.8 1001.1
12 13.08 З 2 10 км 10/4 600 м
[Sc diur, vesp Ac trans Cs]
+33.4 +25.5 63 +48 +48 опасность
перегрева
1001.4 1000.7 +35.2
15 13.08 ЮВ 1 4000 м 10/4 600 м
[Sc diur, vesp Ac trans Cs]
+29.4 +26.6 85 +45 +45 опасность
перегрева
1003.8 1003.1
18 13.08 Ю 2 4000 м 10/3 600 м
[Sc diur, vesp Ac trans Cs]
+29.0 +26.4 86 +44 +44 опасность
перегрева
1005.0 1004.3
21 13.08 Ю 3 4000 м {дождь} 10/5 600 м
[Sc Ac As]
+28.0 +25.4 86 +41 +41 опасность
перегрева
1003.1 1002.4 0.4
00 14.08 Ю 2 4000 м {дождь} 10/5 600 м
[Sc Ac As]
+27.2 +24.6 86 +39 +39 очень
душно
1003.4 1002.7 0.4
03 14.08 З 2 10 км 9/1 600 м
[Sc Ac trans Cs]
+30.0 +24.8 74 +43 +47 опасность
перегрева
1005.1 1004.4 +26.7 +35.2 0.4
06 14.08 З 3 10 км 10/3 600 м
[Cu hum Cs]
+33.4 +25.2 62 +47 +57 опасность
перегрева
1004.8 1004.1
09 14.08 Ю 3 10 км 9/4 600 м
[Sc diur, vesp Ac trans Ci sp]
+34.2 +26.6 65 +51 +56 опасность
перегрева
1002.8 1002.1
12 14.08 Ю 2 4000 м в посл. час дождь 9/5 600 м
[Sc diur, vesp Ac trans Ci sp]
+30.6 +25.8 76 +46 +46 опасность
перегрева
1002.3 1001.6 +35.7 1
15 14.08 ЮВ 2 4000 м 6/4 600 м
[Sc diur, vesp Ac trans]
+29.0 +25.9 83 +43 +43 опасность
перегрева
1005.0 1004.3 1
18 14.08 ЮВ 1 4000 м 9/5 600 м
[Sc diur, vesp Ac trans]
+28.6 +25.8 85 +43 +43 опасность
перегрева
1005.9 1005.2 1
21 14.08 штиль 0 4000 м 6/4 600 м
[Sc diur, vesp Ac trans]
+28.2 +25.6 86 +42 +42 опасность
перегрева
1005.4 1004.7 1
00 15.08 штиль 0 4000 м {дождь} 10/5 600 м
[Sc diur, vesp Ac As]
+26.6 +24.8 90 +38 +38 очень
душно
1006.4 1005.7 2
03 15.08 Ю 2 10 км 4/1 600 м
[Sc diur, vesp Ac trans Ci sp]
+28.6 +25.1 81 +41 +47 опасность
перегрева
1006.8 1006.1 +25.6 +35.7 2
06 15.08 З 3 10 км 5/3 600 м
[Cu hum Ac trans Ci sp]
+32.6 +25.8 67 +48 +59 опасность
перегрева
1006.6 1005.9
09 15.08 СЗ 2 10 км 6/4 600 м
[Sc diur, vesp Ac trans]
+34.4 +24.8 57 +47 +55 опасность
перегрева
1003.6 1002.9
12 15.08 ЮВ 1 10 км 6/4 600 м
[Sc Ac trans]
+31.4 +25.7 72 +46 +47 опасность
перегрева
1002.7 1002.0 +35.8
15 15.08 ЮВ 2 4000 м {дождь} 8/5 600 м
[Sc diur, vesp Ac As]
+28.8 +24.2 76 +40 +40 очень
душно
1005.2 1004.5 0.8
18 15.08 Ю 2 4000 м {дождь} 9/5 600 м
[Sc diur, vesp Ac As]
+28.0 +24.8 83 +40 +40 очень
душно
1006.2 1005.5 0.8
21 15.08 штиль 0 4000 м 9/5 600 м
[Sc diur, vesp Ac As]
+27.8 +24.5 82 +39 +39 очень
душно
1005.2 1004.5 0.8
00 16.08 ЮЗ 1 4000 м 6/4 600 м
[Sc diur, vesp Ac trans]
+27.4 +24.8 86 +39 +39 очень
душно
1004.9 1004.2 0.8
03 16.08 штиль 0 10 км 5/1 600 м
[Sc diur, vesp Ac trans]
+30.4 +26.5 80 +47 +54 опасность
перегрева
1006.1 1005.4 +26.8 +35.8 0.8
06 16.08 З 2 10 км 6/3 600 м
[Sc diur, vesp Ac trans Ci sp]
+33.4 +24.9 61 +47 +60 опасность
перегрева
1005.7 1005.0
09 16.08 Ю 2 10 км 10/5 600 м
[Sc diur, vesp Ac As]
+32.4 +25.0 65 +46 +48 опасность
перегрева
1003.8 1003.1
12 16.08 ЮВ 1 10 км {гроза, дождь} 9/5 600 м
[Sc diur, vesp Ac As]
+25.4 +20.5 74 +31 +32 очень
душно
1002.7 1002.0 +35.0 25
15 16.08 Ю 1 4000 м 9/5 600 м
[Sc diur, vesp Ac As]
+26.0 +21.1 74 +33 +33 очень
душно
1004.0 1003.3 25
18 16.08 Ю 1 4000 м 9/5 600 м
[Sc diur, vesp Ac As]
+25.8 +20.9 74 +32 +32 очень
душно
1004.9 1004.2 25
21 16.08 штиль 0 4000 м 9/5 600 м
[Sc diur, vesp Ac As]
+26.0 +21.8 78 +33 +33 очень
душно
1003.6 1002.9 25
00 17.08 штиль 0 4000 м 9/5 600 м
[Sc diur, vesp Ac As]
+26.0 +21.8 78 +33 +33 очень
душно
1003.7 1003.0 25
03 17.08 ЮЗ 1 4000 м гроза, ливневой дождь 10/5 600 м
[Cb cap As op]
+24.8 +22.1 85 +32 +33 очень
душно
1005.4 1004.7 +24.4 +35.0 37
06 17.08 З 1 10 км {гроза, морось} 10/5 600 м
[Sc diur, vesp Ac As]
+27.6 +25.0 86 +40 +44 очень
душно
1005.8 1005.1 0.1
09 17.08 З 2 10 км 8/4 600 м
[Sc diur, vesp Ac trans Ci sp]
+30.6 +27.2 82 +48 +55 опасность
перегрева
1003.4 1002.7 0.1
12 17.08 СЗ 1 10 км 5/1 600 м
[Sc diur, vesp Ac trans Ci sp]
+31.0 +25.3 72 +45 +46 опасность
перегрева
1002.8 1002.1 +32.6 0.1
15 17.08 штиль 0 4000 м 5/3 600 м
[Sc diur, vesp Ac trans Ci sp]
+29.6 +26.6 84 +46 +46 опасность
перегрева
1004.4 1003.7 0.1
18 17.08 штиль 0 4000 м 8/4 600 м
[Sc diur, vesp Ac trans Ci sp]
+28.4 +25.8 86 +42 +42 опасность
перегрева
1005.3 1004.6 0.1
21 17.08 штиль 0 4000 м 9/5 600 м
[Sc diur, vesp Ac As]
+28.0 +25.4 86 +41 +41 опасность
перегрева
1004.5 1003.8 0.1
00 18.08 штиль 0 4000 м 10/5 600 м
[Sc diur, vesp Ac As]
+27.6 +25.3 87 +40 +40 очень
душно
1004.7 1004.0 0.1
03 18.08 штиль 0 10 км 10/4 600 м
[Sc diur, vesp Ac As]
+27.4 +24.8 86 +39 +41 очень
душно
1006.3 1005.6 +25.2 +32.6 0.1
06 18.08 З 2 10 км 10/3 600 м
[Sc diur, vesp Ac trans Cs]
+29.2 +26.4 85 +45 +52 опасность
перегрева
1006.8 1006.1
09 18.08 ЮЗ 1 4000 м гроза, ливневой дождь 10/5 600 м
[Cb cap As op]
+27.0 +23.8 83 +37 +39 очень
душно
1004.9 1004.2 10
12 18.08 штиль 0 10 км {гроза, дождь} 10/5 600 м
[Sc diur, vesp Ac As]
+25.6 +22.9 85 +34 +34 очень
душно
1005.1 1004.4 +32.3 13

 

Местоположение метеостанции Бапатла (Андхра-Прадеш, Индия): широта 15.90 долгота 80.47 высота над уровнем моря 6 м.

В архиве по умолчанию представлена погода в Бапатле за последнюю неделю. Архивные данные за месяц целиком и за предыдущие месяцы, начиная с января 2011 года, Вы можете получить, выбрав интересующий диапазон дат из раскрывающегося списка и нажав кнопку "Ввод!".


*Определитесь, кто Вы:
робот инопланетянин человек

Внимание! Время в таблицах - всемирное. Для получения местного времени необходимо прибавить поправку, которая равна 5.5 ч.

Смотрите также архив погоды в соседних городах и на ближайших метеорологических станциях:

Погода в Онголе (Андхра-Прадеш, Индия) (63 км)
Погода в Ганнавараме (Андхра-Прадеш, Индия) (78 км)
Погода в Мачилипатнаме (Андхра-Прадеш, Индия) (80 км)
Погода в Нандигаме (Андхра-Прадеш, Индия) (100 км)
Погода в Рентчайнтале (Андхра-Прадеш, Индия) (122 км)
Погода в Кавали (Андхра-Прадеш, Индия) (123 км)
Погода в Нарсапере (Андхра-Прадеш, Индия) (144 км)
Погода в Кхаммаме (Телингана, Индия) (154 км)
Погода в Неллуру (Андхра-Прадеш, Индия) (170 км)
Погода в Налгонде (Телингана, Индия) (179 км)

Пояснения к столбцам:

Ветер - указаны скорость ветра в м/с - средняя за 10 мин, порывы в срок и между сроками (в фигурных скобках) и направление, откуда дует ветер: С - северный, СВ - северо-восточный, В - восточный, ЮВ - юго-восточный, Ю - южный, ЮЗ - юго-западный, З - западный, СЗ - северо-западный.
Видимость - горизонтальная дальность видимости в метрах или километрах. При видимости от 1 до 10 км при отсутствии осадков обычно наблюдается дымка, при ухудшении видимости до 1 км и менее - туман. В сухую погоду видимость может ухудшаться дымом, пылью или мглою.
Явления - указаны атмосферные явления, наблюдавшиеся в срок или в последний час перед сроком; фигурными скобками обозначены явления, наблюдавшиеся между сроками (за 1-3 часа до срока); квадратными скобками обозначены град или гололедные отложения с указанием их диаметра в мм.
Облачность - указаны через наклонную черту общая и нижняя облачность в баллах и высота нижней границы облаков в метрах; квадратными скобками обозначены формы облаков: Ci - перистые, Cs - перисто-слоистые, Cc - перисто-кучевые, Ac - высококучевые, As - высокослоистые, Sc - слоисто-кучевые, Ns - слоисто-дождевые, Cu - кучевые, Cb - кучево-дождевые. Подробнее классификацию облаков см. в Атласе облаков (PDF).
T - Температура воздуха - температура, измеренная на высоте 2 м над землей.
Td - Температура точки росы - температура, при понижении до которой содержащийся в воздухе водяной пар достигнет насыщения.
f - Относительная влажность воздуха - влажноcть воздуха, измеренная на высоте 2 м над землей.
Te - Эффективная температура - температура, которую ощущает одетый по сезону человек в тени. Характеристика душности погоды. При расчете учитывается влияние влажности воздуха и скорости ветра на теплоощущения человека.
Tes - Эффективная температура на солнце - температура, которую ощущает человек, с поправкой на солнечный нагрев. Характеристика знойности погоды. Зависит от высоты солнца над горизонтом, облачности и скорости ветра. Ночью, в пасмурную погоду, а также при ветре 12 м/с и более поправка равна нулю.
P - Атмосферное давление - приведенное к уровню моря атмосферное давление.
Po - Атмосферное давление - измеренное на уровне метеостанции атмосферное давление.
Tmin - Минимальная температура - минимум температуры воздуха на высоте 2 м над землей.
Tmax - Максимальная температура - максимум температуры воздуха на высоте 2 м над землей.
R - Количество осадков - Количество выпавших осадков за период времени, мм. При наведении курсора мыши на число - период времени, за который выпало указанное количество осадков.
R24 - Количество осадков - Количество выпавших осадков за 24 часа, мм.
S - Снежный покров - Высота снежного покрова, см. При наведении курсора мыши на число - состояние снежного покрова и степень покрытия местности в баллах.